[[{"header":{"parameterUnit":"m.s-1","parameterCategory":1,"la1":30.2991,"la2":30.254,"lo1":-89.0895,"lo2":-89.0444,"dy":0.0017,"dx":0.0017,"nx":28,"ny":28,"refTime":"2024-04-10T03:00:00:Z","depth":0,"parameterNumber":2,"parameterNumberName":"U-component_of_WINDS"},"data":[0,0,0,0,0,0,0,0,0,0,0,0,0,0,0,0,0,0,0,0,0,0,0,0,0,0,0,0,0,0,0,0,0,0,0,0,0,0,0,0,0,0,0,0,0,0,0,0,0,0,0,0,0,0,0,0,0,0,6.8783,6.8782,0,6.8697,6.8696,6.8695,6.8564,6.8562,6.8559,6.8557,6.8469,6.8469,6.8469,0,0,0,0,0,0,0,0,0,0,0,0,0,6.8835,6.8835,6.8783,6.8782,6.8781,6.8697,6.8696,6.8694,6.8564,6.8561,6.8559,6.8556,6.8469,6.8469,6.8469,0,0,0,0,0,0,0,0,0,0,0,0,0,6.8787,6.8834,6.8783,6.8706,6.8698,6.8697,6.8696,6.8694,6.8565,6.8561,6.8558,6.8555,6.8469,6.8469,6.8469,6.8537,0,0,6.8468,6.8468,0,0,0,0,0,0,0,0,6.879,6.8785,6.8718,6.8711,6.8702,6.8637,6.8682,6.8641,6.8566,6.8615,6.8557,6.8553,6.8528,6.8523,6.8514,6.8533,6.8529,6.8468,6.8468,6.8468,6.8468,0,0,0,0,0,0,0,6.8793,6.8788,6.8749,6.8717,6.8708,6.8675,6.8665,6.8673,6.8592,6.8611,6.8601,6.8593,6.8523,6.8515,6.8511,6.8528,6.8468,6.8468,6.8468,6.8467,6.8596,6.86,0,0,0,0,0,0,6.8808,6.8792,6.8751,6.8746,6.8738,6.8677,6.8665,6.8662,6.8592,6.8578,6.8596,6.8587,6.8517,6.8512,6.8508,6.8581,6.8468,6.8467,6.8467,6.8593,6.8597,6.8601,0,0,0,0,0,0,6.881,6.8806,6.8755,6.8766,6.8757,6.868,6.8677,6.8662,6.8653,6.858,6.8565,6.8602,6.8514,6.8508,6.853,6.8576,6.8467,6.8467,6.8589,6.8594,6.8599,6.873,0,0,0,0,0,0,6.8812,6.8807,6.8832,6.8768,6.8757,6.8779,6.868,6.8663,6.8653,6.8641,6.8582,6.8569,6.8511,6.8531,6.853,6.8574,6.8467,6.8584,6.8591,6.8597,6.8721,6.8739,6.8754,0,0,0,0,0,6.8814,6.8873,6.8834,6.883,6.8787,6.8782,6.8776,6.8707,6.8658,6.8682,6.8635,6.8571,6.8572,6.8535,6.8532,6.8577,6.8581,6.8589,6.8597,6.8713,6.8735,6.8754,0,0,0,0,0,0,6.8944,6.8863,6.8819,6.8858,6.8828,6.876,6.8788,6.8733,6.8716,6.8705,6.8621,6.8609,6.8642,6.8611,6.8571,6.8638,6.8567,6.8575,6.8656,6.8676,6.8693,6.8698,6.8467,0,0,0,0,0,6.8978,6.8981,6.8909,6.8951,6.8938,6.8867,6.8862,6.8812,6.8777,6.8763,6.8718,6.8687,6.868,6.8677,6.8666,6.8717,6.8701,6.8746,6.8763,6.8777,6.8784,6.8807,6.8825,6.8627,6.8627,6.8627,0,0,6.9046,6.9002,6.9009,6.8976,6.8947,6.8951,6.8857,6.8866,6.8868,6.8765,6.8782,6.8749,6.8708,6.8744,6.8758,6.872,6.8836,6.8787,6.8799,6.8798,6.8817,6.8836,6.8853,6.8633,6.8632,6.8631,0,0,6.9173,6.9141,6.9172,6.9144,6.9101,6.9053,6.9061,6.9001,6.8974,6.8991,6.8913,6.8915,6.8905,6.8879,6.8864,6.8983,6.8923,6.8982,6.9068,6.9092,6.9107,6.912,6.916,6.9176,6.899,6.899,6.899,0,6.9264,6.9268,6.9194,6.9208,6.9195,6.9103,6.9132,6.911,6.9066,6.9059,6.9018,6.9002,6.8969,6.8997,6.9026,6.9018,6.9023,6.8987,6.9111,6.9123,6.9135,6.9172,6.9188,6.8998,6.8997,6.8996,6.8995,0,6.9381,6.9385,6.9415,6.9374,6.9365,6.9387,6.9317,6.9316,6.9268,6.9224,6.9242,6.9199,6.9177,6.9181,6.9133,6.9202,6.9179,6.9126,6.9052,6.9162,6.9195,6.9209,6.9008,6.9005,6.9003,6.9001,0,0,6.9586,6.9504,6.9516,6.9496,6.9442,6.9443,6.9462,6.944,6.9441,6.9415,6.9426,6.9421,6.937,6.9354,6.9303,6.9324,6.9418,6.9267,6.9265,6.9295,6.9489,6.9528,6.9545,6.9379,6.9382,6.9384,6.9491,0,6.97,6.9725,6.966,6.9701,6.9703,6.9615,6.9631,6.9599,6.956,6.9556,6.9512,6.9508,6.9443,6.9432,6.945,6.9403,6.9455,6.9395,6.9388,6.9389,6.9398,6.9563,6.9604,6.9708,6.9504,6.9506,6.9508,0,6.9836,6.9816,6.9858,6.98,6.9798,6.9814,6.9788,6.9786,6.9749,6.9718,6.9701,6.9641,6.9654,6.9586,6.9601,6.9562,6.9555,6.9533,6.9535,6.9529,6.9453,6.956,6.9739,6.9754,6.9528,6.9527,6.9525,0,6.9979,6.9962,6.9984,6.997,6.9905,6.9917,6.989,6.9849,6.9841,6.9819,6.9812,6.9794,6.9782,6.9769,6.9706,6.9662,6.9729,6.9655,6.9702,6.9704,6.9718,6.9718,6.9897,6.9719,6.9719,6.9719,6.9719,0,7.0112,7.014,7.0047,7.0061,7.009,7.0015,7.0046,7.001,6.9975,6.9979,6.9904,6.991,6.9827,6.9824,6.9775,6.9795,6.9791,6.9766,6.9752,6.9771,6.9774,6.9763,6.9754,6.9723,6.9722,6.9721,6.972,0,7.0275,7.0214,7.0232,7.0168,7.0153,7.0177,7.0122,7.0132,7.0088,7.0095,7.0092,7.0023,7.0016,6.9952,6.9931,6.9897,6.9935,6.9908,6.9947,6.9937,6.9987,6.9983,7.0164,7.0183,6.9997,6.9999,7.0,0,7.0362,7.0382,7.0321,7.0318,7.0295,7.0292,7.0283,7.0211,7.0204,7.0163,7.0177,7.0163,7.0148,7.014,7.0088,7.007,7.0041,7.0106,7.0038,7.0056,7.0039,7.0037,7.0038,7.012,7.0122,7.0124,7.0126,0,7.0524,7.0492,7.0482,7.0461,7.0451,7.0431,7.0407,7.0409,7.0329,7.0326,7.0317,7.0305,7.0283,7.027,7.0243,7.0215,7.0157,7.0148,7.0157,7.0176,7.0196,7.0183,6.9984,7.0143,7.0142,7.014,7.0139,7.0139,7.0649,7.0662,7.0621,7.0611,7.0585,7.0564,7.0569,7.0526,7.0517,7.0493,7.0451,7.0448,7.0409,7.0368,7.0345,7.0341,7.0307,7.0322,7.0325,7.0329,7.0338,7.02,7.0336,7.0336,7.0335,7.0335,7.0334,0,7.0804,7.0774,7.0766,7.0733,7.0725,7.0672,7.0642,7.0639,7.0637,7.0606,7.0593,7.0582,7.0569,7.0516,7.0497,7.0504,7.0477,7.0501,7.0498,7.0493,7.0371,7.0363,7.0524,7.0524,7.0524,7.0524,7.0524,7.0523,7.0884,7.0902,7.0866,7.087,7.0839,7.0835,7.0822,7.0802,7.0776,7.0768,7.0756,7.0722,7.0682,7.0659,7.0645,7.0629,7.0624,7.0658,7.0633,7.052,7.0501,7.0484,7.0476,7.0658,7.0658,7.0755,7.0756,7.0756]},{"header":{"parameterUnit":"m.s-1","parameterCategory":1,"la1":30.2991,"la2":30.254,"lo1":-89.0895,"lo2":-89.0444,"dy":0.0017,"dx":0.0017,"nx":28,"ny":28,"refTime":"2024-04-10T03:00:00:Z","depth":0,"parameterNumber":3,"parameterNumberName":"V-component_of_WINDS"},"data":[0,0,0,0,0,0,0,0,0,0,0,0,0,0,0,0,0,0,0,0,0,0,0,0,0,0,0,0,0,0,0,0,0,0,0,0,0,0,0,0,0,0,0,0,0,0,0,0,0,0,0,0,0,0,0,0,0,0,3.6427,3.6429,0,3.6566,3.6568,3.6569,3.6617,3.6616,3.6616,3.6615,3.6755,3.6759,3.6763,0,0,0,0,0,0,0,0,0,0,0,0,0,3.62,3.6204,3.6427,3.6429,3.6431,3.6566,3.6568,3.657,3.6617,3.6616,3.6616,3.6615,3.6753,3.6758,3.6763,0,0,0,0,0,0,0,0,0,0,0,0,0,3.6315,3.6205,3.6427,3.6471,3.6476,3.6565,3.6568,3.657,3.6617,3.6616,3.6616,3.6615,3.6752,3.6758,3.6764,3.6819,0,0,3.6783,3.6786,0,0,0,0,0,0,0,0,3.6308,3.6323,3.6463,3.6468,3.6474,3.6574,3.6539,3.6653,3.6617,3.6564,3.6615,3.6614,3.6695,3.6706,3.6733,3.6825,3.6831,3.6784,3.6788,3.679,3.6792,0,0,0,0,0,0,0,3.63,3.6317,3.6482,3.6465,3.6472,3.6482,3.6498,3.6561,3.6632,3.6568,3.6572,3.6588,3.6698,3.6727,3.6737,3.6833,3.6784,3.6789,3.6793,3.6796,3.6976,3.6977,0,0,0,0,0,0,3.6285,3.631,3.6478,3.6486,3.6387,3.6487,3.6504,3.6542,3.6631,3.6644,3.6588,3.659,3.6717,3.673,3.6742,3.6812,3.679,3.6796,3.68,3.6975,3.6976,3.6977,0,0,0,0,0,0,3.628,3.63,3.6472,3.6399,3.6422,3.6492,3.6534,3.6545,3.6575,3.6647,3.6659,3.6606,3.6717,3.6733,3.6799,3.6817,3.6799,3.6805,3.6974,3.6975,3.6977,3.6952,0,0,0,0,0,0,3.6273,3.6298,3.632,3.64,3.6426,3.6528,3.6535,3.6549,3.6586,3.6589,3.6666,3.6678,3.6717,3.679,3.6806,3.6826,3.681,3.6973,3.6975,3.6976,3.6951,3.6952,3.6953,0,0,0,0,0,3.6265,3.6307,3.6321,3.6341,3.6456,3.6529,3.6544,3.6589,3.6587,3.661,3.6656,3.6676,3.6813,3.6796,3.6814,3.6837,3.6972,3.6974,3.6976,3.6951,3.6952,3.6953,0,0,0,0,0,0,3.6227,3.6318,3.6335,3.6404,3.6459,3.6537,3.6567,3.6589,3.6644,3.6645,3.6697,3.6714,3.6776,3.6813,3.6793,3.6894,3.6893,3.6899,3.6867,3.6869,3.687,3.686,3.6815,0,0,0,0,0,3.6227,3.628,3.6357,3.641,3.6437,3.6497,3.6531,3.6561,3.6619,3.6642,3.6693,3.6747,3.6802,3.6838,3.6893,3.6956,3.6973,3.6981,3.6981,3.6982,3.6986,3.7022,3.7026,3.6985,3.6985,3.6985,0,0,3.6227,3.6284,3.6314,3.6404,3.645,3.6502,3.6516,3.6571,3.6611,3.665,3.6716,3.6754,3.6819,3.6884,3.6915,3.6917,3.7001,3.6985,3.6984,3.6989,3.7024,3.7028,3.7032,3.6986,3.6986,3.6986,0,0,3.6254,3.6303,3.6352,3.6398,3.6467,3.6507,3.6518,3.6594,3.6621,3.6688,3.6718,3.6765,3.6859,3.6904,3.6938,3.6981,3.7001,3.6997,3.7001,3.7035,3.7038,3.7041,3.7056,3.706,3.7001,3.7001,3.7001,0,3.6245,3.6327,3.6375,3.6429,3.6467,3.6505,3.6555,3.6596,3.6679,3.6704,3.6705,3.6824,3.687,3.6945,3.6955,3.6983,3.6997,3.6989,3.7034,3.7038,3.7041,3.7056,3.7061,3.7,3.7,3.7,3.7,0,3.6312,3.6368,3.64,3.648,3.6521,3.6573,3.6627,3.6663,3.6689,3.6728,3.6794,3.6851,3.6918,3.6938,3.6963,3.7016,3.7015,3.7024,3.7025,3.7044,3.7058,3.7064,3.6999,3.6999,3.6999,3.7,0,0,3.632,3.6425,3.6436,3.6472,3.6551,3.6595,3.6647,3.6713,3.6742,3.6798,3.6842,3.6921,3.6929,3.6969,3.6999,3.7029,3.7058,3.7035,3.7037,3.7037,3.7119,3.7111,3.7117,3.7071,3.7073,3.7074,3.7113,0,3.6357,3.6454,3.6498,3.6574,3.6626,3.6662,3.6707,3.676,3.6797,3.6845,3.6886,3.6941,3.6949,3.6972,3.7003,3.7048,3.7075,3.7046,3.7112,3.7114,3.7095,3.7124,3.7117,3.7152,3.7119,3.712,3.7121,0,3.6414,3.647,3.6552,3.6623,3.6646,3.6687,3.675,3.6796,3.6855,3.688,3.6923,3.6953,3.7007,3.7004,3.7079,3.7058,3.7088,3.7113,3.7116,3.7124,3.7119,3.7133,3.7164,3.7169,3.713,3.7129,3.7129,0,3.641,3.6506,3.6568,3.6598,3.6683,3.671,3.6746,3.6805,3.6841,3.6896,3.692,3.698,3.7012,3.7057,3.7101,3.7095,3.7172,3.7173,3.7194,3.7193,3.7209,3.7207,3.7245,3.7228,3.7228,3.7228,3.7228,0,3.6447,3.6496,3.6567,3.6605,3.666,3.6709,3.6761,3.68,3.6852,3.6896,3.6931,3.6972,3.7028,3.7075,3.711,3.7166,3.7181,3.7202,3.721,3.7199,3.7196,3.7219,3.7218,3.7229,3.7229,3.7229,3.7228,0,3.6453,3.6504,3.6572,3.6647,3.6667,3.6704,3.6767,3.6804,3.6843,3.6899,3.6915,3.6975,3.7033,3.7081,3.7157,3.718,3.7239,3.7249,3.7219,3.7223,3.7242,3.7239,3.7295,3.7305,3.7281,3.7281,3.7282,0,3.6473,3.6512,3.659,3.6623,3.666,3.6712,3.6749,3.6798,3.6835,3.6905,3.6933,3.6994,3.7045,3.7135,3.7184,3.7242,3.7254,3.7269,3.7263,3.7249,3.7253,3.7251,3.7254,3.727,3.727,3.727,3.727,0,3.6504,3.6526,3.6579,3.6641,3.6685,3.6735,3.6786,3.6811,3.6869,3.6909,3.6969,3.7008,3.7085,3.7144,3.7207,3.7243,3.7265,3.7271,3.7279,3.7268,3.7249,3.7259,3.722,3.727,3.727,3.727,3.727,3.727,3.6517,3.6553,3.6613,3.6671,3.6715,3.6762,3.68,3.6843,3.6894,3.6962,3.6987,3.7048,3.7105,3.7191,3.7228,3.7275,3.7278,3.7289,3.7292,3.7294,3.7292,3.7241,3.7286,3.7286,3.7287,3.7287,3.7287,0,3.6549,3.659,3.6642,3.6713,3.6758,3.6776,3.6833,3.6869,3.6923,3.6974,3.7024,3.7091,3.7148,3.7202,3.7262,3.7289,3.7301,3.7303,3.7301,3.7309,3.7287,3.7274,3.7292,3.7292,3.7292,3.7292,3.7292,3.7292,3.6571,3.6631,3.6661,3.6742,3.6783,3.6843,3.6874,3.6917,3.6959,3.7033,3.7081,3.7116,3.7168,3.7231,3.7284,3.7298,3.7318,3.7317,3.7334,3.7312,3.7311,3.731,3.7298,3.7321,3.7321,3.7353,3.7353,3.7354]}]]